Year,Month,Day,Hour,Minute,Value (Times are PST for temperature in C)
2011,07,04,00,00,9.40
2011,07,04,00,01,9.30
2011,07,04,00,02,9.30
2011,07,04,00,03,9.30
2011,07,04,00,04,9.30
2011,07,04,00,05,9.20
2011,07,04,00,06,9.20
2011,07,04,00,07,9.20
2011,07,04,00,08,9.30
2011,07,04,00,09,9.30
2011,07,04,00,10,9.30
2011,07,04,00,11,9.40
2011,07,04,00,12,9.40
2011,07,04,00,13,9.40
2011,07,04,00,14,9.40
2011,07,04,00,15,9.50
2011,07,04,00,16,9.50
2011,07,04,00,17,9.60
2011,07,04,00,18,9.60
2011,07,04,00,19,9.60
2011,07,04,00,20,9.60
2011,07,04,00,21,9.60
2011,07,04,00,22,9.60
2011,07,04,00,23,9.60
2011,07,04,00,24,9.60
2011,07,04,00,25,9.60
2011,07,04,00,26,9.60
2011,07,04,00,27,9.60
2011,07,04,00,28,9.50
2011,07,04,00,29,9.50
2011,07,04,00,30,9.50
2011,07,04,00,31,9.40
2011,07,04,00,32,9.40
2011,07,04,00,33,9.40
2011,07,04,00,34,9.40
2011,07,04,00,35,9.30
2011,07,04,00,36,9.30
2011,07,04,00,37,9.30
2011,07,04,00,38,9.30
2011,07,04,00,39,9.20
2011,07,04,00,40,9.20
2011,07,04,00,41,9.20
2011,07,04,00,42,9.20
2011,07,04,00,43,9.20
2011,07,04,00,44,9.20
2011,07,04,00,45,9.20
2011,07,04,00,46,9.20
2011,07,04,00,47,9.20
2011,07,04,00,48,9.10
2011,07,04,00,49,9.10
2011,07,04,00,50,9.10
2011,07,04,00,51,9.10
2011,07,04,00,52,9.00
2011,07,04,00,53,9.00
2011,07,04,00,54,9.00
2011,07,04,00,55,8.90
2011,07,04,00,56,8.90
2011,07,04,00,57,8.90
2011,07,04,00,58,8.80
2011,07,04,00,59,8.80
2011,07,04,01,00,8.80
2011,07,04,01,01,8.70
2011,07,04,01,02,8.70
2011,07,04,01,03,8.70
2011,07,04,01,04,8.70
2011,07,04,01,05,8.70
2011,07,04,01,06,8.70
2011,07,04,01,07,8.70
2011,07,04,01,08,8.70
2011,07,04,01,09,8.70
2011,07,04,01,10,8.70
2011,07,04,01,11,8.60
2011,07,04,01,12,8.60
2011,07,04,01,13,8.60
2011,07,04,01,14,8.60
2011,07,04,01,15,8.60
2011,07,04,01,16,8.60
2011,07,04,01,17,8.60
2011,07,04,01,18,8.60
2011,07,04,01,19,8.60
2011,07,04,01,20,8.60
2011,07,04,01,21,8.60
2011,07,04,01,22,8.60
2011,07,04,01,23,8.60
2011,07,04,01,24,8.60
2011,07,04,01,25,8.60
2011,07,04,01,26,8.60
2011,07,04,01,27,8.60
2011,07,04,01,28,8.50
2011,07,04,01,29,8.50
2011,07,04,01,30,8.50
2011,07,04,01,31,8.50
2011,07,04,01,32,8.50
2011,07,04,01,33,8.50
2011,07,04,01,34,8.50
2011,07,04,01,35,8.50
2011,07,04,01,36,8.50
2011,07,04,01,37,8.50
2011,07,04,01,38,8.50
2011,07,04,01,39,8.50
2011,07,04,01,40,8.40
2011,07,04,01,41,8.40
2011,07,04,01,42,8.40
2011,07,04,01,43,8.30
2011,07,04,01,44,8.30
2011,07,04,01,45,8.30
2011,07,04,01,46,8.40
2011,07,04,01,47,8.40
2011,07,04,01,48,8.40
2011,07,04,01,49,8.40
2011,07,04,01,50,8.40
2011,07,04,01,51,8.40
2011,07,04,01,52,8.40
2011,07,04,01,53,8.30
2011,07,04,01,54,8.30
2011,07,04,01,55,8.30
2011,07,04,01,56,8.30
2011,07,04,01,57,8.30
2011,07,04,01,58,8.30
2011,07,04,01,59,8.30
2011,07,04,02,00,8.30
2011,07,04,02,01,8.20
2011,07,04,02,02,8.20
2011,07,04,02,03,8.20
2011,07,04,02,04,8.20
2011,07,04,02,05,8.20
2011,07,04,02,06,8.20
2011,07,04,02,07,8.20
2011,07,04,02,08,8.20
2011,07,04,02,09,8.20
2011,07,04,02,10,8.20
2011,07,04,02,11,8.20
2011,07,04,02,12,8.20
2011,07,04,02,13,8.20
2011,07,04,02,14,8.20
2011,07,04,02,15,8.20
2011,07,04,02,16,8.20
2011,07,04,02,17,8.20
2011,07,04,02,18,8.20
2011,07,04,02,19,8.20
2011,07,04,02,20,8.20
2011,07,04,02,21,8.20
2011,07,04,02,22,8.20
2011,07,04,02,23,8.20
2011,07,04,02,24,8.20
2011,07,04,02,25,8.20
2011,07,04,02,26,8.10
2011,07,04,02,27,8.10
2011,07,04,02,28,8.20
2011,07,04,02,29,8.20
2011,07,04,02,30,8.20
2011,07,04,02,31,8.20
2011,07,04,02,32,8.20
2011,07,04,02,33,8.20
2011,07,04,02,34,8.20
2011,07,04,02,35,8.20
2011,07,04,02,36,8.20
2011,07,04,02,37,8.20
2011,07,04,02,38,8.20
2011,07,04,02,39,8.20
2011,07,04,02,40,8.20
2011,07,04,02,41,8.20
2011,07,04,02,42,8.20
2011,07,04,02,43,8.20
2011,07,04,02,44,8.20
2011,07,04,02,45,8.20
2011,07,04,02,46,8.10
2011,07,04,02,47,8.10
2011,07,04,02,48,8.00
2011,07,04,02,49,8.00
2011,07,04,02,50,7.90
2011,07,04,02,51,7.80
2011,07,04,02,52,7.80
2011,07,04,02,53,7.80
2011,07,04,02,54,7.80
2011,07,04,02,55,7.80
2011,07,04,02,56,7.80
2011,07,04,02,57,7.80
2011,07,04,02,58,7.80
2011,07,04,02,59,7.80
2011,07,04,03,00,7.80
2011,07,04,03,01,7.80
2011,07,04,03,02,7.80
2011,07,04,03,03,7.80
2011,07,04,03,04,7.80
2011,07,04,03,05,7.80
2011,07,04,03,06,7.80
2011,07,04,03,07,7.80
2011,07,04,03,08,7.90
2011,07,04,03,09,7.90
2011,07,04,03,10,7.90
2011,07,04,03,11,7.90
2011,07,04,03,12,7.90
2011,07,04,03,13,7.90
2011,07,04,03,14,7.90
2011,07,04,03,15,7.90
2011,07,04,03,16,7.80
2011,07,04,03,17,7.80
2011,07,04,03,18,7.80
2011,07,04,03,19,7.80
2011,07,04,03,20,7.80
2011,07,04,03,21,7.80
2011,07,04,03,22,7.80
2011,07,04,03,23,7.80
2011,07,04,03,24,7.80
2011,07,04,03,25,7.80
2011,07,04,03,26,7.80
2011,07,04,03,27,7.80
2011,07,04,03,28,7.80
2011,07,04,03,29,7.80
2011,07,04,03,30,7.80
2011,07,04,03,31,7.80
2011,07,04,03,32,7.70
2011,07,04,03,33,7.70
2011,07,04,03,34,7.70
2011,07,04,03,35,7.70
2011,07,04,03,36,7.70
2011,07,04,03,37,7.70
2011,07,04,03,38,7.70
2011,07,04,03,39,7.70
2011,07,04,03,40,7.70
2011,07,04,03,41,7.60
2011,07,04,03,42,7.60
2011,07,04,03,43,7.60
2011,07,04,03,44,7.60
2011,07,04,03,45,7.60
2011,07,04,03,46,7.60
2011,07,04,03,47,7.60
2011,07,04,03,48,7.60
2011,07,04,03,49,7.50
2011,07,04,03,50,7.50
2011,07,04,03,51,7.50
2011,07,04,03,52,7.50
2011,07,04,03,53,7.50
2011,07,04,03,54,7.50
2011,07,04,03,55,7.50
2011,07,04,03,56,7.50
2011,07,04,03,57,7.50
2011,07,04,03,58,7.50
2011,07,04,03,59,7.50
2011,07,04,04,00,7.50
2011,07,04,04,01,7.50
2011,07,04,04,02,7.50
2011,07,04,04,03,7.50
2011,07,04,04,04,7.50
2011,07,04,04,05,7.50
2011,07,04,04,06,7.50
2011,07,04,04,07,7.40
2011,07,04,04,08,7.40
2011,07,04,04,09,7.40
2011,07,04,04,10,7.40
2011,07,04,04,11,7.40
2011,07,04,04,12,7.40
2011,07,04,04,13,7.40
2011,07,04,04,14,7.40
2011,07,04,04,15,7.40
2011,07,04,04,16,7.40
2011,07,04,04,17,7.30
2011,07,04,04,18,7.30
2011,07,04,04,19,7.30
2011,07,04,04,20,7.30
2011,07,04,04,21,7.30
2011,07,04,04,22,7.30
2011,07,04,04,23,7.30
2011,07,04,04,24,7.30
2011,07,04,04,25,7.30
2011,07,04,04,26,7.30
2011,07,04,04,27,7.30
2011,07,04,04,28,7.30
2011,07,04,04,29,7.30
2011,07,04,04,30,7.30
2011,07,04,04,31,7.30
2011,07,04,04,32,7.30
2011,07,04,04,33,7.30
2011,07,04,04,34,7.30
2011,07,04,04,35,7.30
2011,07,04,04,36,7.30
2011,07,04,04,37,7.30
2011,07,04,04,38,7.30
2011,07,04,04,39,7.30
2011,07,04,04,40,7.30
2011,07,04,04,41,7.30
2011,07,04,04,42,7.30
2011,07,04,04,43,7.30
2011,07,04,04,44,7.30
2011,07,04,04,45,7.30
2011,07,04,04,46,7.30
2011,07,04,04,47,7.30
2011,07,04,04,48,7.30
2011,07,04,04,49,7.30
2011,07,04,04,50,7.30
2011,07,04,04,51,7.30
2011,07,04,04,52,7.30
2011,07,04,04,53,7.40
2011,07,04,04,54,7.40
2011,07,04,04,55,7.30
2011,07,04,04,56,7.30
2011,07,04,04,57,7.30
2011,07,04,04,58,7.30
2011,07,04,04,59,7.30
2011,07,04,05,00,7.30
2011,07,04,05,01,7.20
2011,07,04,05,02,7.20
2011,07,04,05,03,7.20
2011,07,04,05,04,7.10
2011,07,04,05,05,7.10
2011,07,04,05,06,7.10
2011,07,04,05,07,7.10
2011,07,04,05,08,7.10
2011,07,04,05,09,7.10
2011,07,04,05,10,7.10
2011,07,04,05,11,7.10
2011,07,04,05,12,7.20
2011,07,04,05,13,7.20
2011,07,04,05,14,7.20
2011,07,04,05,15,7.20
2011,07,04,05,16,7.20
2011,07,04,05,17,7.10
2011,07,04,05,18,7.10
2011,07,04,05,19,7.20
2011,07,04,05,20,7.20
2011,07,04,05,21,7.20
2011,07,04,05,22,7.20
2011,07,04,05,23,7.20
2011,07,04,05,24,7.20
2011,07,04,05,25,7.20
2011,07,04,05,26,7.20
2011,07,04,05,27,7.20
2011,07,04,05,28,7.20
2011,07,04,05,29,7.20
2011,07,04,05,30,7.20
2011,07,04,05,31,7.30
2011,07,04,05,32,7.30
2011,07,04,05,33,7.20
2011,07,04,05,34,7.20
2011,07,04,05,35,7.20
2011,07,04,05,36,7.20
2011,07,04,05,37,7.10
2011,07,04,05,38,7.10
2011,07,04,05,39,7.10
2011,07,04,05,40,7.00
2011,07,04,05,41,7.00
2011,07,04,05,42,7.00
2011,07,04,05,43,7.00
2011,07,04,05,44,7.00
2011,07,04,05,45,7.00
2011,07,04,05,46,7.00
2011,07,04,05,47,7.00
2011,07,04,05,48,7.00
2011,07,04,05,49,7.10
2011,07,04,05,50,7.10
2011,07,04,05,51,7.20
2011,07,04,05,52,7.20
2011,07,04,05,53,7.20
2011,07,04,05,54,7.20
2011,07,04,05,55,7.30
2011,07,04,05,56,7.30
2011,07,04,05,57,7.30
2011,07,04,05,58,7.30
2011,07,04,05,59,7.30
2011,07,04,06,00,7.30
2011,07,04,06,01,7.30
2011,07,04,06,02,7.40
2011,07,04,06,03,7.40
2011,07,04,06,04,7.40
2011,07,04,06,05,7.40
2011,07,04,06,06,7.40
2011,07,04,06,07,7.30
2011,07,04,06,08,7.30
2011,07,04,06,09,7.30
2011,07,04,06,10,7.30
2011,07,04,06,11,7.30
2011,07,04,06,12,7.30
2011,07,04,06,13,7.30
2011,07,04,06,14,7.30
2011,07,04,06,15,7.30
2011,07,04,06,16,7.40
2011,07,04,06,17,7.40
2011,07,04,06,18,7.40
2011,07,04,06,19,7.50
2011,07,04,06,20,7.60
2011,07,04,06,21,7.60
2011,07,04,06,22,7.70
2011,07,04,06,23,7.80
2011,07,04,06,24,7.80
2011,07,04,06,25,7.90
2011,07,04,06,26,8.00
2011,07,04,06,27,8.10
2011,07,04,06,28,8.20
2011,07,04,06,29,8.40
2011,07,04,06,30,8.50
2011,07,04,06,31,8.60
2011,07,04,06,32,8.70
2011,07,04,06,33,8.70
2011,07,04,06,34,8.70
2011,07,04,06,35,8.80
2011,07,04,06,36,8.90
2011,07,04,06,37,8.90
2011,07,04,06,38,9.00
2011,07,04,06,39,9.00
2011,07,04,06,40,9.00
2011,07,04,06,41,9.00
2011,07,04,06,42,9.00
2011,07,04,06,43,9.00
2011,07,04,06,44,9.10
2011,07,04,06,45,9.10
2011,07,04,06,46,9.10
2011,07,04,06,47,9.00
2011,07,04,06,48,9.00
2011,07,04,06,49,8.90
2011,07,04,06,50,8.80
2011,07,04,06,51,8.80
2011,07,04,06,52,8.90
2011,07,04,06,53,8.90
2011,07,04,06,54,9.00
2011,07,04,06,55,9.10
2011,07,04,06,56,9.10
2011,07,04,06,57,9.20
2011,07,04,06,58,9.20
2011,07,04,06,59,9.30
2011,07,04,07,00,9.40
2011,07,04,07,01,9.40
2011,07,04,07,02,9.50
2011,07,04,07,03,9.60
2011,07,04,07,04,9.70
2011,07,04,07,05,9.80
2011,07,04,07,06,9.90
2011,07,04,07,07,9.90
2011,07,04,07,08,10.00
2011,07,04,07,09,10.10
2011,07,04,07,10,9.90
2011,07,04,07,11,10.00
2011,07,04,07,12,10.10
2011,07,04,07,13,10.10
2011,07,04,07,14,10.10
2011,07,04,07,15,10.10
2011,07,04,07,16,10.10
2011,07,04,07,17,10.10
2011,07,04,07,18,10.10
2011,07,04,07,19,10.10
2011,07,04,07,20,10.10
2011,07,04,07,21,10.10
2011,07,04,07,22,10.00
2011,07,04,07,23,9.90
2011,07,04,07,24,9.90
2011,07,04,07,25,9.90
2011,07,04,07,26,9.80
2011,07,04,07,27,9.80
2011,07,04,07,28,9.80
2011,07,04,07,29,9.80
2011,07,04,07,30,9.80
2011,07,04,07,31,9.90
2011,07,04,07,32,9.90
2011,07,04,07,33,9.90
2011,07,04,07,34,9.90
2011,07,04,07,35,9.90
2011,07,04,07,36,9.90
2011,07,04,07,37,9.90
2011,07,04,07,38,9.90
2011,07,04,07,39,9.90
2011,07,04,07,40,9.90
2011,07,04,07,41,9.90
2011,07,04,07,42,10.00
2011,07,04,07,43,10.00
2011,07,04,07,44,10.10
2011,07,04,07,45,10.10
2011,07,04,07,46,10.10
2011,07,04,07,47,10.10
2011,07,04,07,48,10.10
2011,07,04,07,49,10.10
2011,07,04,07,50,10.10
2011,07,04,07,51,10.20
2011,07,04,07,52,10.20
2011,07,04,07,53,10.20
2011,07,04,07,54,10.20
2011,07,04,07,55,10.20
2011,07,04,07,56,10.20
2011,07,04,07,57,10.30
2011,07,04,07,58,10.40
2011,07,04,07,59,10.40
2011,07,04,08,00,10.40
2011,07,04,08,01,10.40
2011,07,04,08,02,10.40
2011,07,04,08,03,10.40
2011,07,04,08,04,10.40
2011,07,04,08,05,10.40
2011,07,04,08,06,10.40
2011,07,04,08,07,10.40
2011,07,04,08,08,10.40
2011,07,04,08,09,10.40
2011,07,04,08,10,10.40
2011,07,04,08,11,10.40
2011,07,04,08,12,10.40
2011,07,04,08,13,10.40
2011,07,04,08,14,10.40
2011,07,04,08,15,10.40
2011,07,04,08,16,10.40
2011,07,04,08,17,10.40
2011,07,04,08,18,10.40
2011,07,04,08,19,10.40
2011,07,04,08,20,10.40
2011,07,04,08,21,10.40
2011,07,04,08,22,10.40
2011,07,04,08,23,10.40
2011,07,04,08,24,10.40
2011,07,04,08,25,10.40
2011,07,04,08,26,10.40
2011,07,04,08,27,10.50
2011,07,04,08,28,10.60
2011,07,04,08,29,10.60
2011,07,04,08,30,10.60
2011,07,04,08,31,10.60
2011,07,04,08,32,10.60
2011,07,04,08,33,10.60
2011,07,04,08,34,10.60
2011,07,04,08,35,10.60
2011,07,04,08,36,10.60
2011,07,04,08,37,10.70
2011,07,04,08,38,10.70
2011,07,04,08,39,10.70
2011,07,04,08,40,10.80
2011,07,04,08,41,10.80
2011,07,04,08,42,10.70
2011,07,04,08,43,10.70
2011,07,04,08,44,10.70
2011,07,04,08,45,10.70
2011,07,04,08,46,10.70
2011,07,04,08,47,10.70
2011,07,04,08,48,10.80
2011,07,04,08,49,10.80
2011,07,04,08,50,10.70
2011,07,04,08,51,10.70
2011,07,04,08,52,10.80
2011,07,04,08,53,10.80
2011,07,04,08,54,10.80
2011,07,04,08,55,10.90
2011,07,04,08,56,10.80
2011,07,04,08,57,10.90
2011,07,04,08,58,10.90
2011,07,04,08,59,10.90
2011,07,04,09,00,10.90
2011,07,04,09,01,10.90
2011,07,04,09,02,10.90
2011,07,04,09,03,10.90
2011,07,04,09,04,10.90
2011,07,04,09,05,10.90
2011,07,04,09,06,10.90
2011,07,04,09,07,10.90
2011,07,04,09,08,10.90
2011,07,04,09,09,10.90
2011,07,04,09,10,10.90
2011,07,04,09,11,10.90
2011,07,04,09,12,10.90
2011,07,04,09,13,10.90
2011,07,04,09,14,11.10
2011,07,04,09,15,11.10
2011,07,04,09,16,11.20
2011,07,04,09,17,11.20
2011,07,04,09,18,11.30
2011,07,04,09,19,11.30
2011,07,04,09,20,11.20
2011,07,04,09,21,11.20
2011,07,04,09,22,11.20
2011,07,04,09,23,11.20
2011,07,04,09,24,11.20
2011,07,04,09,25,11.20
2011,07,04,09,26,11.20
2011,07,04,09,27,11.20
2011,07,04,09,28,11.20
2011,07,04,09,29,11.20
2011,07,04,09,30,11.30
2011,07,04,09,31,11.30
2011,07,04,09,32,11.40
2011,07,04,09,33,11.40
2011,07,04,09,34,11.30
2011,07,04,09,35,11.40
2011,07,04,09,36,11.40
2011,07,04,09,37,11.40
2011,07,04,09,38,11.40
2011,07,04,09,39,11.40
2011,07,04,09,40,11.40
2011,07,04,09,41,11.40
2011,07,04,09,42,11.40
2011,07,04,09,43,11.30
2011,07,04,09,44,11.30
2011,07,04,09,45,11.40
2011,07,04,09,46,11.40
2011,07,04,09,47,11.40
2011,07,04,09,48,11.40
2011,07,04,09,49,11.40
2011,07,04,09,50,11.40
2011,07,04,09,51,11.40
2011,07,04,09,52,11.50
2011,07,04,09,53,11.60
2011,07,04,09,54,11.60
2011,07,04,09,55,11.60
2011,07,04,09,56,11.60
2011,07,04,09,57,11.60
2011,07,04,09,58,11.60
2011,07,04,09,59,11.60
2011,07,04,10,00,11.60
2011,07,04,10,01,11.70
2011,07,04,10,02,11.60
2011,07,04,10,03,11.60
2011,07,04,10,04,11.60
2011,07,04,10,05,11.50
2011,07,04,10,06,11.40
2011,07,04,10,07,11.40
2011,07,04,10,08,11.40
2011,07,04,10,09,11.40
2011,07,04,10,10,11.40
2011,07,04,10,11,11.50
2011,07,04,10,12,11.60
2011,07,04,10,13,11.60
2011,07,04,10,14,11.70
2011,07,04,10,15,11.80
2011,07,04,10,16,11.80
2011,07,04,10,17,12.00
2011,07,04,10,18,12.10
2011,07,04,10,19,12.20
2011,07,04,10,20,12.30
2011,07,04,10,21,12.40
2011,07,04,10,22,12.50
2011,07,04,10,23,12.50
2011,07,04,10,24,12.50
2011,07,04,10,25,12.50
2011,07,04,10,26,12.70
2011,07,04,10,27,12.80
2011,07,04,10,28,12.80
2011,07,04,10,29,12.80
2011,07,04,10,30,12.80
2011,07,04,10,31,12.80
2011,07,04,10,32,12.80
2011,07,04,10,33,12.80
2011,07,04,10,34,12.80
2011,07,04,10,35,12.70
2011,07,04,10,36,12.70
2011,07,04,10,37,12.70
2011,07,04,10,38,12.70
2011,07,04,10,39,12.60
2011,07,04,10,40,12.60
2011,07,04,10,41,12.70
2011,07,04,10,42,12.70
2011,07,04,10,43,12.70
2011,07,04,10,44,12.70
2011,07,04,10,45,12.70
2011,07,04,10,46,12.80
2011,07,04,10,47,12.80
2011,07,04,10,48,12.80
2011,07,04,10,49,12.80
2011,07,04,10,50,12.70
2011,07,04,10,51,12.70
2011,07,04,10,52,12.70
2011,07,04,10,53,12.60
2011,07,04,10,54,12.60
2011,07,04,10,55,12.60
2011,07,04,10,56,12.50
2011,07,04,10,57,12.50
2011,07,04,10,58,12.50
2011,07,04,10,59,12.30
2011,07,04,11,00,12.30
2011,07,04,11,01,12.20
2011,07,04,11,02,12.20
2011,07,04,11,03,12.20
2011,07,04,11,04,12.20
2011,07,04,11,05,12.20
2011,07,04,11,06,12.30
2011,07,04,11,07,12.30
2011,07,04,11,08,12.30
2011,07,04,11,09,12.40
2011,07,04,11,10,12.50
2011,07,04,11,11,12.60
2011,07,04,11,12,12.60
2011,07,04,11,13,12.70
2011,07,04,11,14,12.60
2011,07,04,11,15,12.60
2011,07,04,11,16,12.60
2011,07,04,11,17,12.60
2011,07,04,11,18,12.60
2011,07,04,11,19,12.60
2011,07,04,11,20,12.50
2011,07,04,11,21,12.40
2011,07,04,11,22,12.40
2011,07,04,11,23,12.30
2011,07,04,11,24,12.40
2011,07,04,11,25,12.40
2011,07,04,11,26,12.40
2011,07,04,11,27,12.50
2011,07,04,11,28,12.60
2011,07,04,11,29,12.60
2011,07,04,11,30,12.60
2011,07,04,11,31,12.70
2011,07,04,11,32,12.60
2011,07,04,11,33,12.60
2011,07,04,11,34,12.60
2011,07,04,11,35,12.60
2011,07,04,11,36,12.60
2011,07,04,11,37,12.60
2011,07,04,11,38,12.70
2011,07,04,11,39,12.90
2011,07,04,11,40,13.00
2011,07,04,11,41,13.20
2011,07,04,11,42,13.40
2011,07,04,11,43,13.50
2011,07,04,11,44,13.60
2011,07,04,11,45,13.50
2011,07,04,11,46,13.50
2011,07,04,11,47,13.70
2011,07,04,11,48,13.70
2011,07,04,11,49,13.70
2011,07,04,11,50,13.70
2011,07,04,11,51,13.70
2011,07,04,11,52,13.80
2011,07,04,11,53,13.90
2011,07,04,11,54,13.90
2011,07,04,11,55,14.00
2011,07,04,11,56,14.20
2011,07,04,11,57,14.20
2011,07,04,11,58,14.30
2011,07,04,11,59,14.40
2011,07,04,12,00,14.40
2011,07,04,12,01,14.50
2011,07,04,12,02,14.50
2011,07,04,12,03,14.60
2011,07,04,12,04,14.60
2011,07,04,12,05,14.60
2011,07,04,12,06,14.70
2011,07,04,12,07,14.80
2011,07,04,12,08,14.80
2011,07,04,12,09,14.80
2011,07,04,12,10,14.80
2011,07,04,12,11,14.70
2011,07,04,12,12,14.60
2011,07,04,12,13,14.70
2011,07,04,12,14,14.80
2011,07,04,12,15,14.80
2011,07,04,12,16,14.90
2011,07,04,12,17,15.00
2011,07,04,12,18,15.00
2011,07,04,12,19,15.10
2011,07,04,12,20,15.10
2011,07,04,12,21,15.20
2011,07,04,12,22,15.30
2011,07,04,12,23,15.40
2011,07,04,12,24,15.50
2011,07,04,12,25,15.50
2011,07,04,12,26,15.60
2011,07,04,12,27,15.60
2011,07,04,12,28,15.70
2011,07,04,12,29,15.80
2011,07,04,12,30,15.80
2011,07,04,12,31,15.80
2011,07,04,12,32,15.80
2011,07,04,12,33,15.70
2011,07,04,12,34,15.70
2011,07,04,12,35,15.60
2011,07,04,12,36,15.60
2011,07,04,12,37,15.50
2011,07,04,12,38,15.50
2011,07,04,12,39,15.50
2011,07,04,12,40,15.40
2011,07,04,12,41,15.40
2011,07,04,12,42,15.30
2011,07,04,12,43,15.50
2011,07,04,12,44,15.70
2011,07,04,12,45,15.60
2011,07,04,12,46,15.50
2011,07,04,12,47,15.40
2011,07,04,12,48,15.30
2011,07,04,12,49,15.30
2011,07,04,12,50,15.30
2011,07,04,12,51,15.30
2011,07,04,12,52,15.20
2011,07,04,12,53,15.20
2011,07,04,12,54,15.30
2011,07,04,12,55,15.30
2011,07,04,12,56,15.20
2011,07,04,12,57,15.20
2011,07,04,12,58,15.20
2011,07,04,12,59,15.30
2011,07,04,13,00,15.30
2011,07,04,13,01,15.30
2011,07,04,13,02,15.40
2011,07,04,13,03,15.40
2011,07,04,13,04,15.50
2011,07,04,13,05,15.50
2011,07,04,13,06,15.50
2011,07,04,13,07,15.50
2011,07,04,13,08,15.50
2011,07,04,13,09,15.60
2011,07,04,13,10,15.50
2011,07,04,13,11,15.30
2011,07,04,13,12,15.30
2011,07,04,13,13,15.40
2011,07,04,13,14,15.50
2011,07,04,13,15,15.40
2011,07,04,13,16,15.40
2011,07,04,13,17,15.40
2011,07,04,13,18,15.40
2011,07,04,13,19,15.50
2011,07,04,13,20,15.70
2011,07,04,13,21,15.80
2011,07,04,13,22,16.10
2011,07,04,13,23,16.40
2011,07,04,13,24,16.50
2011,07,04,13,25,16.60
2011,07,04,13,26,16.70
2011,07,04,13,27,16.90
2011,07,04,13,28,17.00
2011,07,04,13,29,17.20
2011,07,04,13,30,17.30
2011,07,04,13,31,17.30
2011,07,04,13,32,17.40
2011,07,04,13,33,17.30
2011,07,04,13,34,17.30
2011,07,04,13,35,17.30
2011,07,04,13,36,17.30
2011,07,04,13,37,17.40
2011,07,04,13,38,17.50
2011,07,04,13,39,17.60
2011,07,04,13,40,17.50
2011,07,04,13,41,17.50
2011,07,04,13,42,17.50
2011,07,04,13,43,17.40
2011,07,04,13,44,17.40
2011,07,04,13,45,17.30
2011,07,04,13,46,17.40
2011,07,04,13,47,17.50
2011,07,04,13,48,17.50
2011,07,04,13,49,17.40
2011,07,04,13,50,17.40
2011,07,04,13,51,17.30
2011,07,04,13,52,17.20
2011,07,04,13,53,17.20
2011,07,04,13,54,17.20
2011,07,04,13,55,17.20
2011,07,04,13,56,17.10
2011,07,04,13,57,17.00
2011,07,04,13,58,17.00
2011,07,04,13,59,16.90
2011,07,04,14,00,16.90
2011,07,04,14,01,16.80
2011,07,04,14,02,16.80
2011,07,04,14,03,16.90
2011,07,04,14,04,16.80
2011,07,04,14,05,16.70
2011,07,04,14,06,16.70
2011,07,04,14,07,16.70
2011,07,04,14,08,16.80
2011,07,04,14,09,16.80
2011,07,04,14,10,16.70
2011,07,04,14,11,16.70
2011,07,04,14,12,16.70
2011,07,04,14,13,16.70
2011,07,04,14,14,16.70
2011,07,04,14,15,16.60
2011,07,04,14,16,16.50
2011,07,04,14,17,16.40
2011,07,04,14,18,16.50
2011,07,04,14,19,16.60
2011,07,04,14,20,16.60
2011,07,04,14,21,16.50
2011,07,04,14,22,16.40
2011,07,04,14,23,16.40
2011,07,04,14,24,16.40
2011,07,04,14,25,16.40
2011,07,04,14,26,16.30
2011,07,04,14,27,16.10
2011,07,04,14,28,16.00
2011,07,04,14,29,15.90
2011,07,04,14,30,15.90
2011,07,04,14,31,16.00
2011,07,04,14,32,16.10
2011,07,04,14,33,16.20
2011,07,04,14,34,16.30
2011,07,04,14,35,16.40
2011,07,04,14,36,16.60
2011,07,04,14,37,16.60
2011,07,04,14,38,16.40
2011,07,04,14,39,16.40
2011,07,04,14,40,16.30
2011,07,04,14,41,16.30
2011,07,04,14,42,16.20
2011,07,04,14,43,16.10
2011,07,04,14,44,16.10
2011,07,04,14,45,16.10
2011,07,04,14,46,16.10
2011,07,04,14,47,16.20
2011,07,04,14,48,16.40
2011,07,04,14,49,16.50
2011,07,04,14,50,16.60
2011,07,04,14,51,16.80
2011,07,04,14,52,16.80
2011,07,04,14,53,17.00
2011,07,04,14,54,17.10
2011,07,04,14,55,17.20
2011,07,04,14,56,17.30
2011,07,04,14,57,17.40
2011,07,04,14,58,17.50
2011,07,04,14,59,17.50
2011,07,04,15,00,17.70
2011,07,04,15,01,17.80
2011,07,04,15,02,17.80
2011,07,04,15,03,17.80
2011,07,04,15,04,17.80
2011,07,04,15,05,17.80
2011,07,04,15,06,17.80
2011,07,04,15,07,17.90
2011,07,04,15,08,17.80
2011,07,04,15,09,17.80
2011,07,04,15,10,17.70
2011,07,04,15,11,17.70
2011,07,04,15,12,17.70
2011,07,04,15,13,17.70
2011,07,04,15,14,17.70
2011,07,04,15,15,17.90
2011,07,04,15,16,17.90
2011,07,04,15,17,17.80
2011,07,04,15,18,17.80
2011,07,04,15,19,17.80
2011,07,04,15,20,17.90
2011,07,04,15,21,17.90
2011,07,04,15,22,17.80
2011,07,04,15,23,17.80
2011,07,04,15,24,17.60
2011,07,04,15,25,17.50
2011,07,04,15,26,17.60
2011,07,04,15,27,17.50
2011,07,04,15,28,17.50
2011,07,04,15,29,17.50
2011,07,04,15,30,17.40
2011,07,04,15,31,17.50
2011,07,04,15,32,17.50
2011,07,04,15,33,17.40
2011,07,04,15,34,17.30
2011,07,04,15,35,17.30
2011,07,04,15,36,17.30
2011,07,04,15,37,17.30
2011,07,04,15,38,17.30
2011,07,04,15,39,17.40
2011,07,04,15,40,17.40
2011,07,04,15,41,17.50
2011,07,04,15,42,17.50
2011,07,04,15,43,17.60
2011,07,04,15,44,17.70
2011,07,04,15,45,17.70
2011,07,04,15,46,17.70
2011,07,04,15,47,17.70
2011,07,04,15,48,17.60
2011,07,04,15,49,17.60
2011,07,04,15,50,17.60
2011,07,04,15,51,17.60
2011,07,04,15,52,17.70
2011,07,04,15,53,17.70
2011,07,04,15,54,17.60
2011,07,04,15,55,17.50
2011,07,04,15,56,17.40
2011,07,04,15,57,17.30
2011,07,04,15,58,17.20
2011,07,04,15,59,17.10
2011,07,04,16,00,17.00
2011,07,04,16,01,17.00
2011,07,04,16,02,16.80
2011,07,04,16,03,16.70
2011,07,04,16,04,16.60
2011,07,04,16,05,16.60
2011,07,04,16,06,16.60
2011,07,04,16,07,16.60
2011,07,04,16,08,16.60
2011,07,04,16,09,16.70
2011,07,04,16,10,16.90
2011,07,04,16,11,17.00
2011,07,04,16,12,17.20
2011,07,04,16,13,17.20
2011,07,04,16,14,17.20
2011,07,04,16,15,17.10
2011,07,04,16,16,16.90
2011,07,04,16,17,16.80
2011,07,04,16,18,16.70
2011,07,04,16,19,16.60
2011,07,04,16,20,16.50
2011,07,04,16,21,16.40
2011,07,04,16,22,16.40
2011,07,04,16,23,16.40
2011,07,04,16,24,16.50
2011,07,04,16,25,16.60
2011,07,04,16,26,16.70
2011,07,04,16,27,16.80
2011,07,04,16,28,17.00
2011,07,04,16,29,17.10
2011,07,04,16,30,17.10
2011,07,04,16,31,17.20
2011,07,04,16,32,17.20
2011,07,04,16,33,17.20
2011,07,04,16,34,17.30
2011,07,04,16,35,17.30
2011,07,04,16,36,17.40
2011,07,04,16,37,17.40
2011,07,04,16,38,17.40
2011,07,04,16,39,17.30
2011,07,04,16,40,17.10
2011,07,04,16,41,16.90
2011,07,04,16,42,16.80
2011,07,04,16,43,16.80
2011,07,04,16,44,16.80
2011,07,04,16,45,16.80
2011,07,04,16,46,16.80
2011,07,04,16,47,16.80
2011,07,04,16,48,16.90
2011,07,04,16,49,17.00
2011,07,04,16,50,17.00
2011,07,04,16,51,17.00
2011,07,04,16,52,17.10
2011,07,04,16,53,17.20
2011,07,04,16,54,17.30
2011,07,04,16,55,17.30
2011,07,04,16,56,17.30
2011,07,04,16,57,17.40
2011,07,04,16,58,17.30
2011,07,04,16,59,17.30
2011,07,04,17,00,17.40
2011,07,04,17,01,17.50
2011,07,04,17,02,17.50
2011,07,04,17,03,17.50
2011,07,04,17,04,17.50
2011,07,04,17,05,17.60
2011,07,04,17,06,17.60
2011,07,04,17,07,17.50
2011,07,04,17,08,17.50
2011,07,04,17,09,17.50
2011,07,04,17,10,17.40
2011,07,04,17,11,17.50
2011,07,04,17,12,17.50
2011,07,04,17,13,17.50
2011,07,04,17,14,17.50
2011,07,04,17,15,17.50
2011,07,04,17,16,17.50
2011,07,04,17,17,17.50
2011,07,04,17,18,17.60
2011,07,04,17,19,17.70
2011,07,04,17,20,17.80
2011,07,04,17,21,17.70
2011,07,04,17,22,17.70
2011,07,04,17,23,17.70
2011,07,04,17,24,17.70
2011,07,04,17,25,17.50
2011,07,04,17,26,17.50
2011,07,04,17,27,17.50
2011,07,04,17,28,17.50
2011,07,04,17,29,17.50
2011,07,04,17,30,17.50
2011,07,04,17,31,17.50
2011,07,04,17,32,17.50
2011,07,04,17,33,17.60
2011,07,04,17,34,17.60
2011,07,04,17,35,17.60
2011,07,04,17,36,17.50
2011,07,04,17,37,17.50
2011,07,04,17,38,17.30